Regional Weather Roundup
Issued by NWS Albany, NY

Home | Current Version | Previous Version | Text Only | Print | Product List | Glossary On
Versions: 1 2 3 4 5 6 7 8 9 10 11 12 13 14 15 16 17 18 19 20 21 22 23 24 25 26 27 28
000
ASUS41 KALY 220810
RWRALY

NEW YORK STATE HOURLY WEATHER ROUNDUP
NATIONAL WEATHER SERVICE ALBANY NY
300 AM EST WED NOV 22 2017

NOTE: "FAIR" INDICATES FEW OR NO CLOUDS BELOW 12,000 FEET WITH NO
SIGNIFICANT WEATHER AND/OR NO OBSTRUCTIONS TO VISIBILITY.

NYZ032-033-038>043-046>054-057>066-NYZ062>081-082-084-220900-
EAST


CITY           SKY/WX    TMP DP  RH WIND       PRES   REMARKS
ALBANY         CLOUDY    44  31  60 S10       29.94R
GLENS FALLS    PTCLDY    28  25  88 CALM      29.92S
POUGHKEEPSIE   CLOUDY    34  29  82 CALM      29.96S
NEWBURGH       CLEAR     36  34  93 CALM      29.97S
MONTGOMERY     MOCLDY    32  29  88 CALM      29.95F
WHITE PLAINS   CLOUDY    43  40  89 CALM      29.96F
ISLIP          LGT RAIN  52  50  93 S3        29.98F
NEW YORK CITY  NOT AVBL
CENTRAL PARK   CLOUDY    54  44  69 CALM      29.99F
$$

NYZ005>009-017-018-044>046-055-056-220900-
CENTRAL


CITY           SKY/WX    TMP DP  RH WIND       PRES   REMARKS
FULTON         LGT RAIN  44  40  85 W8        29.90R
SYRACUSE       CLOUDY    44  31  60 NW8       29.89R
ROME           CLOUDY    44  30  57 SE6       29.89S
ELMIRA         CLOUDY    39  33  79 CALM      29.88R
BINGHAMTON     CLOUDY    44  32  62 SW7       29.88S
MONTICELLO     CLOUDY    35  32  88 NE3       29.94F
$$

NYZ026>034-041>043-087-220900-
NORTH


CITY           SKY/WX    TMP DP  RH WIND       PRES   REMARKS
WATERTOWN      LGT RAIN  43  41  93 W7        29.87F
FORT DRUM      NOT AVBL
OGDENSBURG     RAIN      42  40  93 W3        29.87R
MASSENA        LGT RAIN  43  43 100 W6        29.88R FOG
SARANAC LAKE   CLOUDY    34  29  82 CALM      29.83S
PLATTSBURGH    CLOUDY    35  27  72 CALM      29.87R
$$

NYZ001>004-010>016-019>021-085-220900-
WEST


CITY           SKY/WX    TMP DP  RH WIND       PRES   REMARKS
NIAGARA FALLS  LGT RAIN  37  33  85 W6        29.96R WCI  32
BUFFALO        LGT SNOW  34  33  96 NW8       29.96R FOG     WCI  27
DUNKIRK        MIX PCPN  36  34  92 NW12      29.98R WCI  28
JAMESTOWN      LGT SNOW  32  30  93 NW10      29.93R FOG     WCI  24
WELLSVILLE     CLOUDY    44  32  62 W8        29.88R
ROCHESTER      LGT RAIN  39  37  92 NW13G21   29.93R WCI  31
PENN YAN       CLOUDY    44  35  70 CALM      29.89R
$$

             KEY
       WCI = WIND CHILL INDEX
       VSB = VISIBILITY
       HX  = HEAT INDEX
$$




USA.gov is the U.S. government's official web portal to all federal, state and local government web resources and services.